Regional Weather Roundup
Issued by NWS

Home | Current Version | Previous Version | Graphics & Text | Print | Product List | Glossary On
Versions: 1 2 3 4 5 6 7 8 9 10 11 12 13 14 15 16 17 18 19 20 21 22 23 24 25 26 27 28 29 30 31 32 33 34 35 36 37 38 39 40 41 42 43 44 45 46 47 48 49 50
000
ASUS43 KBIS 151702
RWRND

NORTH DAKOTA REGIONAL WEATHER ROUNDUP
NATIONAL WEATHER SERVICE BISMARCK ND
1100 AM CST SUN JAN 15 2017

NOTE: "FAIR" INDICATES FEW OR NO CLOUDS BELOW 12,000 FEET WITH NO
SIGNIFICANT WEATHER AND/OR OBSTRUCTIONS TO VISIBILITY.


NDZ001>003-009>011-017-151800-
NORTHWEST NORTH DAKOTA

CITY           SKY/WX    TMP DP  RH WIND       PRES   REMARKS
WILLISTON      FAIR      12   2  64 CALM      30.06S
MINOT          FAIR      20   7  57 SW14      30.03S WCI   7
$$

NDZ018>021-031>035-040>046-151800-
SOUTHWEST NORTH DAKOTA

CITY           SKY/WX    TMP DP  RH WIND       PRES   REMARKS
BISMARCK       FAIR      -4 -10  75 E5        30.15S WCI -15
DICKINSON      FAIR      19   6  57 SW21      30.05S WCI   3
GARRISON         N/A      6   2  83 CALM      30.07S
HETTINGER ARPT CLOUDY    11   4  73 CALM      30.11S
$$

NDZ004>008-012>016-024-026-027-054-151800-
NORTHEAST NORTH DAKOTA

CITY           SKY/WX    TMP DP  RH WIND       PRES   REMARKS
GRAND FORKS    CLOUDY     7   0  73 S10       30.12S WCI  -8
GRND FRKS AFB  CLOUDY    17   3  55 W6        30.12R WCI   8
DEVILS LAKE    FAIR      10   3  73 SW9       30.08R WCI  -3
$$

NDZ022-023-025-028>030-036>039-047>053-151800-
SOUTHEAST NORTH DAKOTA

CITY           SKY/WX    TMP DP  RH WIND       PRES   REMARKS
FARGO          CLOUDY    14   7  73 S12       30.19R WCI   0
JAMESTOWN      FAIR      15   5  64 SW10      30.12R WCI   2
$$





USA.gov is the U.S. government's official web portal to all federal, state and local government web resources and services.